Hourly Weather Lukov Kordon

Today, 17 May, Monday

Time Temperature Precipitation Wind Pressure Humidity
00:00 +24°C° 0 mm 3 mps 759 mmHg 38%
01:00 +22°C° 0 mm 3 mps 759 mmHg 36%
02:00 +21°C° 0 mm 3 mps 759 mmHg 35%
03:00 +21°C° 0 mm 3 mps 759 mmHg 35%
04:00 +21°C° 0 mm 3 mps 759 mmHg 38%
05:00 +21°C° 0 mm 3 mps 759 mmHg 41%
06:00 +22°C° 0 mm 3 mps 759 mmHg 45%
07:00 +25°C° 0 mm 4 mps 759 mmHg 40%
08:00 +27°C° 0 mm 5 mps 759 mmHg 34%
09:00 +29°C° 0 mm 5 mps 760 mmHg 29%
10:00 +30°C° 0 mm 6 mps 759 mmHg 26%
11:00 +33°C° 0 mm 7 mps 759 mmHg 22%
12:00 +34°C° 0 mm 7 mps 759 mmHg 19%
13:00 +34°C° 0 mm 7 mps 759 mmHg 19%
14:00 +34°C° 0 mm 6 mps 759 mmHg 18%
15:00 +34°C° 0 mm 6 mps 759 mmHg 18%
16:00 +33°C° 0 mm 5 mps 758 mmHg 23%
17:00 +30°C° 0 mm 5 mps 758 mmHg 29%
18:00 +29°C° 0 mm 4 mps 758 mmHg 35%
19:00 +27°C° 0 mm 4 mps 758 mmHg 35%
20:00 +25°C° 0 mm 4 mps 758 mmHg 36%
21:00 +23°C° 0 mm 4 mps 758 mmHg 37%
22:00 +22°C° 0 mm 4 mps 758 mmHg 37%
23:00 +21°C° 0 mm 4 mps 758 mmHg 36%

Tomorrow, 18 May, Tuesday

Time Temperature Precipitation Wind Pressure Humidity
00:00 +20°C° 0 mm 4 mps 758 mmHg 36%
01:00 +20°C° 0 mm 4 mps 758 mmHg 37%
02:00 +19°C° 0 mm 4 mps 757 mmHg 38%
03:00 +19°C° 0 mm 5 mps 757 mmHg 38%
04:00 +19°C° 0 mm 5 mps 757 mmHg 40%
05:00 +20°C° 0 mm 5 mps 757 mmHg 42%
06:00 +20°C° 0 mm 5 mps 757 mmHg 45%
07:00 +23°C° 0 mm 5 mps 757 mmHg 39%
08:00 +27°C° 0 mm 5 mps 757 mmHg 34%
09:00 +29°C° 0 mm 5 mps 757 mmHg 29%
10:00 +32°C° 0 mm 5 mps 757 mmHg 25%
11:00 +34°C° 0 mm 6 mps 757 mmHg 21%
12:00 +35°C° 0 mm 6 mps 757 mmHg 18%
13:00 +35°C° 0 mm 6 mps 757 mmHg 18%
14:00 +35°C° 0 mm 6 mps 757 mmHg 18%
15:00 +35°C° 0 mm 7 mps 756 mmHg 19%
16:00 +34°C° 0 mm 6 mps 756 mmHg 24%
17:00 +32°C° 0 mm 6 mps 756 mmHg 30%
18:00 +30°C° 0 mm 5 mps 756 mmHg 36%
19:00 +28°C° 0 mm 5 mps 756 mmHg 39%
20:00 +26°C° 0 mm 5 mps 756 mmHg 42%
21:00 +25°C° 0 mm 5 mps 756 mmHg 45%
22:00 +23°C° 0 mm 5 mps 756 mmHg 43%
23:00 +23°C° 0 mm 5 mps 756 mmHg 42%

Day after tomorrow, 19 May, Wednesday

Time Temperature Precipitation Wind Pressure Humidity
00:00 +23°C° 0 mm 5 mps 756 mmHg 41%
01:00 +22°C° 0 mm 5 mps 756 mmHg 42%
02:00 +21°C° 0 mm 5 mps 756 mmHg 44%
03:00 +20°C° 0 mm 5 mps 755 mmHg 46%
04:00 +21°C° 0 mm 5 mps 756 mmHg 49%
05:00 +21°C° 0 mm 5 mps 756 mmHg 51%
06:00 +22°C° 0 mm 5 mps 756 mmHg 54%
07:00 +24°C° 0 mm 6 mps 756 mmHg 48%
08:00 +27°C° 0 mm 7 mps 755 mmHg 43%
09:00 +29°C° 0 mm 8 mps 755 mmHg 38%
10:00 +31°C° 0 mm 8 mps 755 mmHg 34%
11:00 +32°C° 0 mm 9 mps 755 mmHg 30%
12:00 +34°C° 0 mm 9 mps 755 mmHg 26%
13:00 +34°C° 0 mm 9 mps 755 mmHg 27%
14:00 +34°C° 0 mm 9 mps 754 mmHg 27%
15:00 +34°C° 0 mm 8 mps 754 mmHg 28%
16:00 +33°C° 0 mm 8 mps 754 mmHg 33%
17:00 +32°C° 0 mm 8 mps 754 mmHg 37%
18:00 +31°C° 0 mm 8 mps 753 mmHg 42%
19:00 +27°C° 1 mm 9 mps 754 mmHg 52%
20:00 +23°C° 1 mm 11 mps 755 mmHg 61%
21:00 +19°C° 1 mm 13 mps 756 mmHg 71%
22:00 +19°C° 0.5 mm 11 mps 755 mmHg 71%
23:00 +19°C° 0.5 mm 9 mps 755 mmHg 71%

20 May, Thursday

Time Temperature Precipitation Wind Pressure Humidity
00:00 +20°C° 0.5 mm 7 mps 755 mmHg 71%
01:00 +20°C° 0 mm 6 mps 755 mmHg 73%
02:00 +19°C° 0 mm 6 mps 756 mmHg 76%
03:00 +17°C° 0 mm 5 mps 756 mmHg 78%
04:00 +17°C° 0 mm 5 mps 757 mmHg 79%
05:00 +18°C° 0 mm 4 mps 757 mmHg 79%
06:00 +18°C° 0 mm 4 mps 758 mmHg 79%
07:00 +19°C° 0.1 mm 3 mps 758 mmHg 73%
08:00 +20°C° 0.1 mm 3 mps 758 mmHg 67%
09:00 +21°C° 0.1 mm 3 mps 758 mmHg 61%
10:00 +21°C° 0.1 mm 3 mps 758 mmHg 63%
11:00 +20°C° 0.1 mm 3 mps 759 mmHg 65%
12:00 +20°C° 0.1 mm 2 mps 759 mmHg 66%
13:00 +20°C° 0.2 mm 2 mps 759 mmHg 70%
14:00 +19°C° 0.2 mm 2 mps 759 mmHg 73%
15:00 +18°C° 0.2 mm 2 mps 759 mmHg 77%
16:00 +19°C° 0.1 mm 2 mps 759 mmHg 74%
17:00 +19°C° 0.1 mm 2 mps 759 mmHg 72%
18:00 +20°C° 0.1 mm 1 mps 759 mmHg 69%
19:00 +19°C° 0 mm 1 mps 759 mmHg 72%
20:00 +18°C° 0 mm 1 mps 759 mmHg 76%
21:00 +18°C° 0 mm 1 mps 759 mmHg 80%
22:00 +16°C° 0 mm 1 mps 759 mmHg 80%
23:00 +16°C° 0 mm 1 mps 759 mmHg 80%

21 May, Friday

Time Temperature Precipitation Wind Pressure Humidity
00:00 +16°C° 0 mm 1 mps 759 mmHg 80%
01:00 +15°C° 0 mm 1 mps 759 mmHg 81%
02:00 +15°C° 0 mm 1 mps 759 mmHg 81%
03:00 +15°C° 0 mm 2 mps 759 mmHg 82%
04:00 +16°C° 0 mm 1 mps 759 mmHg 79%
05:00 +18°C° 0 mm 1 mps 759 mmHg 75%
06:00 +19°C° 0 mm 1 mps 760 mmHg 71%
07:00 +20°C° 0 mm 1 mps 760 mmHg 65%
08:00 +21°C° 0 mm 2 mps 760 mmHg 59%
09:00 +23°C° 0 mm 2 mps 760 mmHg 53%
10:00 +24°C° 0 mm 2 mps 760 mmHg 49%
11:00 +25°C° 0 mm 2 mps 760 mmHg 46%
12:00 +26°C° 0 mm 2 mps 760 mmHg 42%
13:00 +26°C° 0 mm 2 mps 760 mmHg 40%
14:00 +27°C° 0 mm 2 mps 760 mmHg 39%
15:00 +27°C° 0 mm 2 mps 760 mmHg 37%
16:00 +27°C° 0 mm 2 mps 760 mmHg 40%
17:00 +27°C° 0 mm 1 mps 760 mmHg 43%
18:00 +26°C° 0 mm 1 mps 760 mmHg 47%
19:00 +25°C° 0 mm 1 mps 760 mmHg 49%
20:00 +23°C° 0 mm 1 mps 760 mmHg 51%
21:00 +21°C° 0 mm 1 mps 761 mmHg 53%
22:00 +21°C° 0 mm 1 mps 761 mmHg 55%
23:00 +20°C° 0 mm 1 mps 761 mmHg 57%

22 May, Saturday

Time Temperature Precipitation Wind Pressure Humidity
00:00 +18°C° 0 mm 0 mps 761 mmHg 58%
01:00 +20°C° 0 mm 1 mps 761 mmHg 58%
02:00 +19°C° 0 mm 1 mps 761 mmHg 58%
03:00 +18°C° 0 mm 2 mps 761 mmHg 58%
04:00 +19°C° 0 mm 2 mps 761 mmHg 59%
05:00 +20°C° 0 mm 2 mps 762 mmHg 59%
06:00 +21°C° 0 mm 2 mps 762 mmHg 59%
07:00 +22°C° 0 mm 3 mps 762 mmHg 54%
08:00 +25°C° 0 mm 4 mps 762 mmHg 50%
09:00 +26°C° 0 mm 4 mps 762 mmHg 45%
10:00 +27°C° 0 mm 4 mps 761 mmHg 42%
11:00 +28°C° 0 mm 4 mps 761 mmHg 38%
12:00 +29°C° 0 mm 4 mps 761 mmHg 35%
13:00 +30°C° 0 mm 5 mps 761 mmHg 34%
14:00 +30°C° 0 mm 5 mps 760 mmHg 33%
15:00 +32°C° 0 mm 5 mps 760 mmHg 32%
16:00 +30°C° 0 mm 5 mps 760 mmHg 36%
17:00 +29°C° 0 mm 4 mps 760 mmHg 40%
18:00 +29°C° 0 mm 4 mps 760 mmHg 44%
19:00 +27°C° 0 mm 4 mps 760 mmHg 45%
20:00 +26°C° 0 mm 4 mps 760 mmHg 46%
21:00 +23°C° 0 mm 4 mps 760 mmHg 47%
22:00 +23°C° 0 mm 4 mps 760 mmHg 49%
23:00 +22°C° 0 mm 4 mps 760 mmHg 51%
Show more

We Need Your Consent

Meteoprog and our Service Providers may store and access personal data such as cookies, device identifiers or other similar technologies on your device and process such data to personalise content and ads, as well as provide social media features and to analyse the traffic.

  • Store and/or access information on your device

    Cookies, device identifiers or other information can be stored or accessed on your device for the purposes indicated above.

  • Personalised ads and content, ad and content measurement, audience insights, and products development

    Ads and content can be personalised based on a profile. More data can be added to better personalise ads and content. Ad and content performance can be measured. Insights about the audience who saw the ads and content can be derived. Such data can be used to develop or improve user’s experience, systems and software.

By clicking ‘I Agree’ you will allow the use of indicated cookies, device identifiers, web beacons or other similar technologies. Your settings can be changed in the browser on your device.

For certain purposes, legitimate interests may be relied on, rather than consent. You can read more about this in our Privacy and Cookie Policy.